Darstellungsparameter: Aktuell verwendete Einstellungen:
Skalierung der Graphiken ... ?
xyx+y,   Skalierungsfaktor:      Skalierung: Modus: x, Faktor: 1
Darstellungszeitraum ... ?
Vom - - bis: - -   Zeitraum: 01.12.2011 - 01.12.2011
Min/Max/Avg-Anzeige ... ?
Zeige MMA aktuell
Zeige MMA Monat
Zeige MMA alles
Zeige --A aktuell
Zeige --A Monat
Zeige --A alles
Keine MMA-Anzeige
MMA:
Average (ber die Originaldaten)
MMA-Basis: 01.12.2011 - 01.12.2011
Quicknavigation für Darstellung... ?
Tage:      1T, 2T, 3T, 5T -1T -2T -3T -5T +1T +2T +3T +5T
Wochen: 1W, 2W, 3W -1W -2W -3W +1W +2W +3W
Monate: 1M, 3M, 6M -1M -3M -6M +1M +3M +6M
Jahre:    1J, 3J, 5J, 10J -1J -3J -5J -10J +1J +3J +5J +10J
Nutze für die Darstellung ... ?
Originaldaten oder Mittelwerte auf ...
Stundenbasis Tagesbasis Wochenbasis
Monatsbasis Jahresbasis      Datenbasis: Original-Daten
Darstellen als:
Statistik (Auto) Statistik J:M      Darstellung:
Zur Graphik,    zurück zur Übersicht aller Sensoren.
 
Tabellarische Datenbersicht: ?
 
Sensor: Nr:Datum:Temp:Abs-Feuchte:Windchill:Wind:
Aussen-T/F 1 01-12-2011 00:11:01 -1.7 C 3.96 g/m*3 -1.7 C 0 km/h
2 01-12-2011 00:23:01 -1.8 C 3.93 g/m*3 -1.8 C 0 km/h
3 01-12-2011 00:35:02 -1.7 C 3.96 g/m*3 -1.7 C 0 km/h
4 01-12-2011 00:47:01 -1.7 C 3.96 g/m*3 -1.7 C 0 km/h
5 01-12-2011 00:59:01 -1.4 C 4.09 g/m*3 -1.4 C 0 km/h
6 01-12-2011 01:11:02 -1.8 C 3.93 g/m*3 -1.8 C 0 km/h
7 01-12-2011 01:23:01 -1.2 C 4.15 g/m*3 -1.2 C 0 km/h
8 01-12-2011 01:35:01 -1.6 C 4.03 g/m*3 -1.6 C 0 km/h
9 01-12-2011 01:47:01 -1.8 C 3.98 g/m*3 -1.8 C 0 km/h
10 01-12-2011 01:59:01 -2 C 3.92 g/m*3 -2 C 0 km/h
11 01-12-2011 02:11:02 -2 C 3.92 g/m*3 -2 C 0 km/h
12 01-12-2011 02:23:01 -2.1 C 3.89 g/m*3 -2.1 C 0 km/h
13 01-12-2011 02:35:01 -2 C 3.92 g/m*3 -2 C 0 km/h
14 01-12-2011 02:48:04 -2 C 3.92 g/m*3 -2 C 0 km/h
15 01-12-2011 03:00:04 -1.6 C 4.03 g/m*3 -1.6 C 0 km/h
16 01-12-2011 03:12:05 -1.4 C 4.09 g/m*3 -1.4 C 0 km/h
17 01-12-2011 03:24:05 -1.7 C 4 g/m*3 -1.7 C 0 km/h
18 01-12-2011 03:36:02 -1.4 C 4.09 g/m*3 -1.4 C 0 km/h
19 01-12-2011 03:48:02 -0.9 C 4.23 g/m*3 -0.9 C 0 km/h
20 01-12-2011 04:00:02 -0.8 C 4.31 g/m*3 -0.8 C 0 km/h
21 01-12-2011 04:12:02 -0.3 C 4.46 g/m*3 -0.3 C 0 km/h
22 01-12-2011 04:24:02 -0.4 C 4.43 g/m*3 -0.4 C 0 km/h
23 01-12-2011 04:36:02 -0.5 C 4.4 g/m*3 -0.5 C 0 km/h
24 01-12-2011 04:48:02 -0.4 C 4.43 g/m*3 -0.4 C 0 km/h
25 01-12-2011 05:00:02 -0.2 C 4.49 g/m*3 -0.2 C 0 km/h
Sensor: Nr:Datum:Temp:Abs-Feuchte:Windchill:Wind:
Aussen-T/F 26 01-12-2011 05:12:02 0 C 4.55 g/m*3 0 C 0 km/h
27 01-12-2011 05:24:03 -0.2 C 4.49 g/m*3 -0.2 C 0 km/h
28 01-12-2011 05:36:02 0.4 C 4.68 g/m*3 0.4 C 0 km/h
29 01-12-2011 05:48:01 0.1 C 4.59 g/m*3 0.1 C 0 km/h
30 01-12-2011 06:00:01 0.1 C 4.59 g/m*3 0.1 C 0 km/h
31 01-12-2011 06:12:02 0.6 C 4.75 g/m*3 0.6 C 0 km/h
32 01-12-2011 06:24:01 0.7 C 4.78 g/m*3 0.7 C 0 km/h
33 01-12-2011 06:36:01 1.4 C 5.01 g/m*3 1.4 C 0 km/h
34 01-12-2011 06:48:01 1.9 C 5.19 g/m*3 1.9 C 0 km/h
35 01-12-2011 07:00:01 1.9 C 5.19 g/m*3 1.9 C 0 km/h
36 01-12-2011 07:12:01 2.3 C 5.33 g/m*3 2.3 C 0 km/h
37 01-12-2011 07:24:02 2.4 C 5.37 g/m*3 2.4 C 0 km/h
38 01-12-2011 07:36:01 2.5 C 5.4 g/m*3 2.5 C 0 km/h
39 01-12-2011 07:36:01 2.5 C 5.4 g/m*3 2.5 C 0 km/h
40 01-12-2011 07:36:01 2.5 C 5.4 g/m*3 2.5 C 0 km/h
41 01-12-2011 07:36:01 2.5 C 5.4 g/m*3 2.5 C 0 km/h
42 01-12-2011 07:48:03 2.8 C 5.51 g/m*3 2.8 C 0 km/h
43 01-12-2011 08:00:03 2.6 C 5.44 g/m*3 2.6 C 0 km/h
44 01-12-2011 08:12:02 2.7 C 5.48 g/m*3 2.7 C 0 km/h
45 01-12-2011 08:24:02 2.7 C 5.48 g/m*3 2.7 C 0 km/h
46 01-12-2011 08:36:02 2.4 C 5.37 g/m*3 2.4 C 0 km/h
47 01-12-2011 08:48:02 2.6 C 5.44 g/m*3 2.6 C 0 km/h
48 01-12-2011 09:00:02 3 C 5.59 g/m*3 3 C 0 km/h
49 01-12-2011 09:12:02 3.6 C 5.82 g/m*3 3.6 C 0 km/h
50 01-12-2011 09:24:02 3.5 C 5.78 g/m*3 3.5 C 0 km/h
Sensor: Nr:Datum:Temp:Abs-Feuchte:Windchill:Wind:
Aussen-T/F 51 01-12-2011 09:36:02 3.2 C 5.66 g/m*3 3.2 C 0 km/h
52 01-12-2011 09:48:02 3.4 C 5.74 g/m*3 3.4 C 0 km/h
53 01-12-2011 10:00:02 3.2 C 5.66 g/m*3 3.2 C 0 km/h
54 01-12-2011 10:12:02 3.4 C 5.74 g/m*3 3.4 C 0 km/h
55 01-12-2011 10:24:02 3.3 C 5.7 g/m*3 3.3 C 0 km/h
56 01-12-2011 10:36:01 3.7 C 5.86 g/m*3 3.7 C 0 km/h
57 01-12-2011 10:48:02 4 C 5.98 g/m*3 4 C 0 km/h
58 01-12-2011 11:00:03 4.8 C 6.3 g/m*3 4.8 C 0 km/h
59 01-12-2011 11:12:01 5.1 C 6.36 g/m*3 5.1 C 0 km/h
60 01-12-2011 11:24:01 5.7 C 6.62 g/m*3 5.7 C 0 km/h
61 01-12-2011 11:36:02 6 C 6.75 g/m*3 6 C 0 km/h
62 01-12-2011 11:48:02 5.8 C 6.66 g/m*3 5.8 C 0 km/h
63 01-12-2011 12:00:02 6.4 C 6.85 g/m*3 6.4 C 0 km/h
64 01-12-2011 12:12:02 6.8 C 7.04 g/m*3 6.8 C 0 km/h
65 01-12-2011 12:24:01 7.9 C 7.56 g/m*3 7.9 C 0 km/h
66 01-12-2011 12:36:02 8.1 C 7.57 g/m*3 8.1 C 0 km/h
67 01-12-2011 12:48:02 8.9 C 7.97 g/m*3 8.9 C 0 km/h
68 01-12-2011 13:00:02 9.1 C 7.9 g/m*3 9.1 C 0 km/h
69 01-12-2011 13:12:02 9.9 C 8.31 g/m*3 9.9 C 0 km/h
70 01-12-2011 13:24:01 9.6 C 8.06 g/m*3 9.6 C 0 km/h
71 01-12-2011 13:36:02 10.1 C 8.13 g/m*3 10.1 C 0 km/h
72 01-12-2011 13:48:01 10.1 C 8.04 g/m*3 10.1 C 0 km/h
73 01-12-2011 14:00:01 10 C 7.99 g/m*3 10 C 0 km/h
74 01-12-2011 14:12:02 10.4 C 8.19 g/m*3 10.4 C 0 km/h
75 01-12-2011 14:24:02 10.7 C 8.15 g/m*3 10.7 C 0 km/h
Sensor: Nr:Datum:Temp:Abs-Feuchte:Windchill:Wind:
Aussen-T/F 76 01-12-2011 14:36:01 10.7 C 7.96 g/m*3 10.7 C 0 km/h
77 01-12-2011 14:48:02 10.6 C 7.81 g/m*3 10.6 C 0 km/h
78 01-12-2011 15:00:02 10.5 C 7.76 g/m*3 10.5 C 0 km/h
79 01-12-2011 15:12:01 10.4 C 7.81 g/m*3 10.4 C 0 km/h
80 01-12-2011 15:24:02 10.2 C 7.8 g/m*3 10.2 C 0 km/h
81 01-12-2011 15:36:01 10.1 C 7.75 g/m*3 10.1 C 0 km/h
82 01-12-2011 15:48:02 10.2 C 7.71 g/m*3 10.2 C 0 km/h
83 01-12-2011 16:00:03 10.7 C 7.86 g/m*3 10.7 C 0 km/h
84 01-12-2011 16:12:02 11 C 7.61 g/m*3 11 C 0 km/h
85 01-12-2011 16:24:02 11.5 C 7.33 g/m*3 11.5 C 0 km/h
86 01-12-2011 16:36:02 11.9 C 7.2 g/m*3 11.9 C 0 km/h
87 01-12-2011 16:48:01 12.1 C 7.08 g/m*3 12.1 C 0 km/h
88 01-12-2011 17:00:01 12 C 7.03 g/m*3 12 C 0 km/h
89 01-12-2011 17:12:02 11.8 C 7.16 g/m*3 11.8 C 0 km/h
90 01-12-2011 17:24:01 11.9 C 7.1 g/m*3 11.9 C 0 km/h
91 01-12-2011 17:36:02 11.4 C 7.19 g/m*3 11.4 C 0 km/h
92 01-12-2011 17:48:01 11.2 C 7.3 g/m*3 11.2 C 0 km/h
93 01-12-2011 18:00:01 11.7 C 7.32 g/m*3 11.7 C 0 km/h
94 01-12-2011 18:12:02 11.3 C 7.24 g/m*3 11.3 C 0 km/h
95 01-12-2011 18:24:01 11.1 C 7.25 g/m*3 11.1 C 0 km/h
96 01-12-2011 18:36:02 11 C 7.31 g/m*3 11 C 0 km/h
97 01-12-2011 18:48:01 10.8 C 7.51 g/m*3 10.8 C 0 km/h
98 01-12-2011 19:00:01 10.4 C 7.42 g/m*3 10.4 C 0 km/h
99 01-12-2011 19:12:02 10.4 C 7.61 g/m*3 10.4 C 0 km/h
100 01-12-2011 19:24:02 10.1 C 7.66 g/m*3 10.1 C 0 km/h
Sensor: Nr:Datum:Temp:Abs-Feuchte:Windchill:Wind:
Aussen-T/F 101 01-12-2011 19:36:01 9.9 C 7.84 g/m*3 9.9 C 0 km/h
102 01-12-2011 19:48:02 9.7 C 7.84 g/m*3 9.7 C 0 km/h
103 01-12-2011 20:00:02 9.6 C 7.88 g/m*3 9.6 C 0 km/h
104 01-12-2011 20:12:01 9.4 C 7.78 g/m*3 9.4 C 0 km/h
105 01-12-2011 20:24:02 9.3 C 7.82 g/m*3 9.3 C 0 km/h
106 01-12-2011 20:36:01 9.3 C 7.82 g/m*3 9.3 C 0 km/h
107 01-12-2011 20:48:02 9.2 C 7.77 g/m*3 9.2 C 0 km/h
108 01-12-2011 21:00:02 9.3 C 7.82 g/m*3 9.3 C 0 km/h
109 01-12-2011 21:12:02 9.3 C 7.91 g/m*3 9.3 C 0 km/h
110 01-12-2011 21:24:02 9.4 C 7.96 g/m*3 9.4 C 0 km/h
111 01-12-2011 21:36:03 9.5 C 8.01 g/m*3 9.5 C 0 km/h
112 01-12-2011 21:48:02 9.5 C 7.92 g/m*3 9.5 C 0 km/h
113 01-12-2011 22:00:02 9.6 C 7.97 g/m*3 9.6 C 0 km/h
114 01-12-2011 22:12:01 9.6 C 7.97 g/m*3 9.6 C 0 km/h
115 01-12-2011 22:24:02 9.7 C 8.02 g/m*3 9.7 C 0 km/h
116 01-12-2011 22:36:02 9.8 C 8.07 g/m*3 9.8 C 0 km/h
117 01-12-2011 22:48:02 9.8 C 8.07 g/m*3 9.8 C 0 km/h
118 01-12-2011 23:00:02 9.6 C 7.97 g/m*3 9.6 C 0 km/h
119 01-12-2011 23:12:02 9.7 C 8.02 g/m*3 9.7 C 0 km/h
120 01-12-2011 23:24:02 9.5 C 7.92 g/m*3 9.5 C 0 km/h
121 01-12-2011 23:36:02 9.7 C 8.02 g/m*3 9.7 C 0 km/h
122 01-12-2011 23:48:01 9.8 C 8.07 g/m*3 9.8 C 0 km/h

Legende:
   Min
   Max


Maximal/Minimal-Werte vom 01.12.2011 - 01.12.2011

Sensor Min Max Avg
Temp
(Aussen-T/F)
-2.1 °C
01-12-2011  02:23:01
12.1 °C
01-12-2011  16:48:01
5.52 °C
Abs-Feuchte
(Aussen-T/F)
3.89 g/m*3
01-12-2011  02:23:01
8.31 g/m*3
01-12-2011  13:12:02
6.25 g/m*3
Windchill
(Aussen-T/F)
-2.1 C
01-12-2011  02:23:01
12.1 C
01-12-2011  16:48:01
5.43 C

Die Daten stammen von einer Davis Vantage Pro 2 Wetter-Station und werden unter Linux mit der Software wview2wettercgi und aufbereitet. Alle Angaben erfolgen ohne Gewähr für ihre Vollständigkeit oder Richtigkeit.
Kontakt: Rainer Krienke krienke@uni-koblenz.de . Meine Webseiten an der Uni Koblenz oder privat.
Version: $Revision: 0.78 $